Location: Ffald-y-Brenin
(52.0833°N, 4.0000°W)
Time: 05:58:49
(UTC+00:00)

Cosmos 1339 Rocket - Pass Details

Date: 18 February 2020
Orbit: 943 x 1005 km, 82.9° (Epoch: 28 March)

Event Time Altitude Azimuth Distance (km) Brightness Sun altitude
Exits shadow 05:07:59 - 195° (SSW) 2,915 6.8 -21.9°
Reaches altitude 10° 05:08:40 10° 196° (SSW) 2,656 6.5 -21.7°
Maximum altitude 05:14:44 75° 282° (WNW) 983 4.3 -20.8°
Drops below altitude 10° 05:20:54 10° 8° (N) 2,695 7.0 -19.9°
Sets 05:23:26 0° 10° (N) 3,652 7.7 -19.5°
